Location: Hawks Ness
(60.2333°N, 1.1667°W)
Time: 17:07:05
(UTC+00:00)

Cosmos 1908 - Pass Details

Date: 22 October 2019
Orbit: 511 x 532 km, 82.5° (Epoch: 12 November)

Event Time Altitude Azimuth Distance (km) Brightness Sun altitude
Rises 05:56:21 0° 339° (NNW) 2,659 6.5 -8.6°
Reaches altitude 10° 05:58:49 10° 324° (NW) 1,762 5.5 -8.3°
Maximum altitude 06:01:50 22° 273° (W) 1,163 4.4 -7.9°
Drops below altitude 10° 06:04:50 10° 221° (SW) 1,743 5.6 -7.6°
Sets 06:07:16 0° 206° (SSW) 2,622 6.6 -7.3°
